FENGYUN 1C DEB

Satellite information

Favourite Embed

Satellite Type and Status

DEBRISIN ORBIT

Key statistics

Satellite FENGYUN 1C DEB at a glance.

Uptime

9715

Days in orbit

Revolutions

≈ 14.4

Per day

Orbit

SSO

Sun Synchronous Orbit

Inclination

99.0

Latest

Satellite identification and parameters

Extended collection of information and parameters for FENGYUN 1C DEB.

Object identification

Identified? True

Debris? True

Object name: FENGYUN 1C DEB

International designator: 1999-025AWY

Object number (NORAD): 30862

Object ID (CCSDS): 30862

Country: PEOPLES REPUBLIC OF CHINA (PRC)

Current information (Y/N): Y

RCS size: SMALL

Orbital parameters

Period: 99.788 minutes

Inclination: 98.958 deg

SMA: 7126.554 km

Apoapsis: 786.161 km

Periapsis: 710.678 km

RAAN: 76.9612 deg

Eccentricy: 0.00529585

Argument of periapsis: 164.8136 deg

Mean anomaly: 224.4839 deg

Mean motion: 14.4305654 rev/day

Mean motion (dot): 0.00018235 rev/day2

B* drag term: 0.0053484242 1/REarth

Two-line elements (TLE)

Creation date: Dec. 12, 2025, 10:14 a.m.

Reference frame: TEME

Reference center: EARTH

Epoch: Dec. 12, 2025, 5:24 a.m. UTC

TLE line 0: 0 FENGYUN 1C DEB

TLE line 1: 1 30862U 99025AWY 25346.22538672 .00018235 00000-0 53484-2 0 9994

TLE line 2: 2 30862 98.9580 76.9612 0052959 164.8136 224.4839 14.43056540967129

Live tracking on map

Real-time ground track for satellite FENGYUN 1C DEB.

In-orbit conjunctions

A list of the most updated potential collisions computed for object FENGYUN 1C DEB.

Target Orbit TCA Probability of collision Miss distance Type
COSMOS 372 LEO 2025-03-20 09:30:13 0.0001412548 863.0 (m) PAYLOAD
FENGYUN 1C DEB SSO 2024-11-12 04:30:33 0.0002158669 961.0 (m) DEBRIS

Associated space launch

Chinese polar orbiting meteorological satellite

FENGYUN 1C DEB was lifted into orbit during the mission ‘Long March 4B | Feng Yun 1C’, on board a Long March 4B space rocket.

The launch took place on May 10, 1999, 1:33 a.m. from Launch Complex 7.

For more information about the launch, click the button.

Launch to space Long March 4B | Feng Yun 1C
Long March 4B | Feng Yun 1C

Agency: N/A

Status: Launch Successful

Launch date: May 10, 1999, 1:33 a.m. UTC

Rocket: Long March 4B

Launch pad: Launch Complex 7

Location: Taiyuan Satellite Launch Center, People's Republic of China

...

Latest news about this satellite

There are no fresh news available about this satellite. Check back as we update our databases every day.


Newsletter sign-up

Weekly statistics, charts and insights to help you stay on top of the space industry.